Flag for Indonesia Weather past 2 weeks in Makassar, South Sulawesi, Indonesia

Now
79 °F

Passing clouds.


Feels Like: 80 °F
Forecast: 75 / 92 °F
Wind: 1 mph from North

Location: Ujung Pandang / Hasanuddin

Current Time: Sep 19, 2014 at 12:22:21 AM

Latest Report: Sep 19, 2014 at 12:00 AM


Visibility: 5 mi

Pressure: 29.89 "Hg

Humidity: 58%

Dew point: 63 °F

Location of MakassarLocation

Historic Weather in Makassar — Graph

°F

Makassar temperature yesterday

Maximum temperature yesterday: 95 °F (at 10:00 AM)
Minimum temperature yesterday: 75 °F (at 3:30 AM)
Average temperature yesterday: 85 °F

Past Weeks' High & Low Weather Summary

 TemperatureHumidityPressure
High99 °F (Sep 13, 1:30 PM)94% (Sep 8, 4:00 AM)29.95 "Hg (Sep 8, 4:00 AM)
Low64 °F (Sep 8, 6:00 AM)16% (Sep 13, 10:00 AM)29.71 "Hg (Sep 13, 3:30 PM)
Average82 °F56%29.84 "Hg
* Reported Sep 3 11:00 PM — Sep 18 11:00 PM, Makassar, Weather by CustomWeather, © 2014

Note: Actual official high and low records may vary slightly from our data, if they occured in-between our weather recording intervals... More about our weather records

Advertising

Makassar weather history for previous 24 hours

 ConditionsComfort  
Time TempWeatherWind HumidityBarometerVisibility
11:00 PM
Sep 18
79 °FPassing clouds.2 mph58%29.89 "Hg5 mi
10:30 PM79 °FPassing clouds.2 mph54%29.89 "Hg5 mi
10:00 PM81 °FPassing clouds.3 mph51%29.89 "Hg5 mi
9:30 PM82 °FPassing clouds.3 mph45%29.89 "Hg5 mi
9:00 PM82 °FPassing clouds.5 mph45%29.89 "Hg5 mi
8:30 PM82 °FPassing clouds.5 mph45%29.86 "Hg5 mi
8:00 PM84 °FPassing clouds.5 mph48%29.86 "Hg5 mi
7:30 PM86 °FPassing clouds.6 mph59%29.86 "Hg5 mi
7:00 PM86 °FPassing clouds.7 mph66%29.83 "Hg5 mi
6:30 PM86 °FPassing clouds.6 mph59%29.83 "Hg5 mi
6:00 PM90 °FPassing clouds.6 mph52%29.80 "Hg5 mi
5:30 PM90 °FSunny.6 mph52%29.80 "Hg10 mi
5:00 PM91 °FPassing clouds.6 mph46%29.80 "HgN/A
4:30 PM93 °FPassing clouds.7 mph44%29.77 "HgN/A
4:00 PM93 °FPassing clouds.6 mph44%29.77 "HgN/A
3:30 PM93 °FPassing clouds.6 mph44%29.77 "HgN/A
3:00 PM93 °FPassing clouds.9 mph47%29.77 "HgN/A
2:30 PM91 °FPassing clouds.12 mph49%29.80 "HgN/A
2:00 PM91 °FPassing clouds.14 mph56%29.80 "HgN/A
1:30 PM91 °FPassing clouds.14 mph52%29.80 "HgN/A
1:00 PM93 °FPassing clouds.12 mph49%29.83 "HgN/A
12:30 PM95 °FPassing clouds.12 mph47%29.83 "HgN/A
12:00 PM95 °FPassing clouds.10 mph47%29.86 "HgN/A
11:30 AM93 °FPassing clouds.10 mph49%29.86 "HgN/A
11:00 AM93 °FPassing clouds.12 mph49%29.89 "HgN/A
10:30 AM95 °FPassing clouds.7 mph50%29.89 "HgN/A
10:00 AM95 °FPassing clouds.3 mph39%29.92 "HgN/A
9:30 AM91 °FPassing clouds.3 mph46%29.92 "HgN/A
9:00 AM91 °FPassing clouds.3 mph49%29.92 "HgN/A
8:30 AM90 °FPassing clouds.3 mph52%29.92 "HgN/A
8:00 AM86 °FPassing clouds.3 mph59%29.92 "HgN/A
7:30 AM82 °FPassing clouds.3 mph70%29.89 "HgN/A
7:00 AM79 °FPassing clouds.3 mph79%29.89 "HgN/A
6:30 AM75 °FPassing clouds.3 mph89%29.89 "HgN/A
6:00 AM75 °FPassing clouds.2 mph89%29.89 "HgN/A
5:30 AM75 °FClear.5 mph89%29.89 "Hg5 mi
5:00 AM75 °FClear.6 mph89%29.86 "Hg5 mi
4:30 AM75 °FClear.3 mph89%29.86 "Hg5 mi
4:00 AM75 °FClear.3 mph89%29.86 "Hg5 mi
3:30 AM75 °FClear.No wind89%29.86 "Hg5 mi
3:00 AM77 °FClear.5 mph89%29.86 "Hg5 mi
2:30 AM77 °FClear.3 mph89%29.86 "Hg5 mi
2:00 AM77 °FClear.3 mph83%29.86 "Hg5 mi
1:30 AM77 °FClear.3 mph83%29.89 "Hg5 mi
1:00 AM77 °FClear.3 mph89%29.89 "Hg5 mi
12:30 AM77 °FClear.3 mph89%29.89 "Hg5 mi
12:00 AM79 °FClear.2 mph89%29.89 "Hg5 mi
Weather by CustomWeather, © 2014

See weather overviewHow to use our weather pages